LB9CG Weather Reports


Display with metric or nautical units.
time (UTC)temp
F
wind
direction
speed
MPH
gust
MPH
rain 1hr
in
rain 24hr
in
rain mn
in
humidity
%
barometer
mb
20260906191036 52 203 1.0 1.0 0.00 0.43 0.43 95 1012.2
20260906190100 52 225 1.0 2.0 0.01 0.43 0.43 95 1012.2
20260906185124 52 193 1.0 3.0 0.01 0.43 0.43 95 1012.3
20260906184035 52 228 2.0 5.0 0.01 0.43 0.43 94 1012.4
20260906183100 52 221 1.0 4.0 0.00 0.42 0.42 94 1012.4
20260906182124 52 0.0 0.0 0.00 0.42 0.42 94 1012.2
20260906181036 52 193 1.0 2.0 0.00 0.42 0.42 94 1012.4
20260906180059 53 0.0 0.0 0.00 0.42 0.42 93 1012.3
20260906175124 53 0.0 0.0 0.00 0.42 0.42 94 1012.3
20260906174116 53 0.0 0.0 0.00 0.42 0.42 91 1012.3
20260906173059 53 0.0 0.0 0.00 0.42 0.42 92 1012.5
20260906172123 53 0.0 0.0 0.00 0.42 0.42 93 1012.6
20260906171115 53 231 1.0 2.0 0.00 0.42 0.42 90 1012.4
20260906170059 53 206 1.0 3.0 0.00 0.42 0.42 91 1012.6
20260906165123 54 220 2.0 4.0 0.00 0.42 0.42 89 1012.3
20260906164035 54 264 3.0 4.0 0.00 0.42 0.42 87 1012.4
20260906163059 54 0.0 0.0 0.00 0.42 0.42 91 1012.5
20260906162123 54 294 0.0 1.0 0.00 0.42 0.42 90 1012.5
20260906161035 54 204 0.0 2.0 0.00 0.42 0.42 91 1012.4
20260906160059 54 264 1.0 3.0 0.00 0.42 0.42 91 1012.5
20260906155123 54 247 1.0 1.0 0.00 0.42 0.42 92 1012.5
20260906154035 54 239 1.0 3.0 0.00 0.42 0.42 92 1012.4
20260906153059 54 211 1.0 2.0 0.00 0.42 0.42 92 1012.2
20260906152123 54 176 2.0 4.0 0.00 0.42 0.42 92 1012.3
20260906151035 55 252 1.0 3.0 0.00 0.42 0.42 93 1012.3
20260906150059 54 234 1.0 5.0 0.04 0.42 0.42 91 1012.1
20260906145123 54 205 2.0 3.0 0.04 0.42 0.42 93 1012.1
20260906144035 54 203 2.0 6.0 0.04 0.42 0.42 94 1012.1
20260906143059 54 96 0.0 1.0 0.04 0.42 0.42 94 1011.9
20260906142143 53 223 1.0 2.0 0.04 0.42 0.42 94 1011.8
20260906141055 53 257 1.0 2.0 0.03 0.41 0.41 95 1011.9
20260906140059 53 0.0 0.0 0.13 0.38 0.38 95 1011.8
20260906135123 54 246 0.0 1.0 0.05 0.30 0.30 93 1011.8
20260906134035 54 174 1.0 4.0 0.01 0.26 0.26 91 1011.6
20260906133059 55 339 1.0 2.0 0.00 0.25 0.25 89 1011.6
20260906132123 55 201 2.0 3.0 0.00 0.25 0.25 90 1011.7
20260906131055 55 262 3.0 5.0 0.00 0.25 0.25 89 1011.6
20260906130119 56 231 1.0 3.0 0.04 0.25 0.25 87 1011.5
20260906125123 56 103 1.0 3.0 0.04 0.25 0.25 87 1011.5
20260906124035 54 233 1.0 4.0 0.04 0.25 0.25 92 1011.4
20260906123059 55 276 1.0 2.0 0.03 0.24 0.24 92 1011.3
20260906122123 55 215 1.0 2.0 0.01 0.22 0.22 90 1011.1
20260906121035 55 0.0 0.0 0.01 0.22 0.22 93 1011.2
20260906120059 55 264 0.0 2.0 0.01 0.21 0.21 93 1011.3
20260906115123 55 199 1.0 2.0 0.00 0.20 0.20 92 1011.2
20260906114035 55 202 1.0 2.0 0.00 0.20 0.20 92 1011.1
20260906113059 56 228 3.0 9.0 0.00 0.20 0.20 92 1011.0
20260906112123 55 0.0 0.0 0.00 0.20 0.20 92 1010.9
20260906111055 54 274 3.0 6.0 0.00 0.20 0.20 92 1010.9
20260906110059 54 291 2.0 3.0 0.07 0.20 0.20 91 1010.8
20260906105127 54 266 2.0 2.0 0.07 0.20 0.20 94 1010.7
20260906104040 54 221 2.0 3.0 0.07 0.20 0.20 95 1010.5
20260906103103 54 252 1.0 4.0 0.04 0.17 0.17 94 1010.4
20260906102127 54 217 1.0 3.0 0.02 0.15 0.15 95 1010.3
20260906101059 53 270 1.0 2.0 0.02 0.15 0.15 94 1010.4
20260906100103 54 285 2.0 5.0 0.13 0.13 0.13 93 1010.2
20260906095127 55 210 1.0 3.0 0.02 0.02 0.02 90 1010.3
20260906094119 56 234 1.0 2.0 0.00 0.00 0.00 87 1010.1
20260906093143 56 251 3.0 4.0 0.00 0.00 0.00 85 1010.1
20260906092147 56 210 3.0 7.0 0.00 0.00 0.00 86 1010.0
20260906091038 56 143 2.0 5.0 0.00 0.00 0.00 87 1010.0
20260906090122 56 160 0.0 1.0 0.00 0.00 0.00 86 1010.0
20260906085126 56 124 1.0 3.0 0.00 0.00 0.00 86 1009.8
20260906084038 56 173 2.0 3.0 0.00 0.00 0.00 87 1009.9
20260906083102 56 173 1.0 2.0 0.00 0.00 0.00 87 1009.9
20260906082126 56 157 1.0 3.0 0.00 0.00 0.00 88 1009.8
20260906081058 56 140 2.0 3.0 0.00 0.00 0.00 86 1009.7
20260906075126 55 192 0.0 2.0 0.00 0.00 0.00 88 1009.4
20260906074038 56 149 2.0 5.0 0.00 0.00 0.00 86 1009.3
20260906073101 55 218 1.0 2.0 0.00 0.00 0.00 89 1009.3
20260906072125 55 0.0 0.0 0.00 0.00 0.00 90 1009.1
20260906071038 54 155 0.0 1.0 0.00 0.00 0.00 91 1009.1
20260906070101 54 165 1.0 2.0 0.00 0.00 0.00 91 1009.2
20260906065125 54 0.0 0.0 0.00 0.00 0.00 91 1009.0
20260906064037 54 0.0 0.0 0.00 0.00 0.00 92 1009.2
20260906063101 54 161 1.0 1.0 0.00 0.00 0.00 91 1008.9
20260906062125 53 207 1.0 1.0 0.00 0.00 0.00 92 1008.7
20260906061037 53 228 0.0 1.0 0.00 0.00 0.00 93 1008.8
20260906055125 53 153 0.0 1.0 0.00 0.00 0.00 94 1008.9
20260906054037 53 0.0 0.0 0.00 0.00 0.00 95 1008.9
20260906053101 53 0.0 0.0 0.00 0.00 0.00 95 1009.0
20260906052125 52 0.0 0.0 0.00 0.00 0.00 95 1008.9
20260906051038 52 0.0 0.0 0.00 0.00 0.00 95 1008.8
20260906050101 51 0.0 0.0 0.00 0.00 0.00 96 1008.7
20260906045125 51 0.0 0.0 0.00 0.00 0.00 96 1008.6
20260906044037 51 0.0 0.0 0.00 0.00 0.00 96 1008.5
20260906043100 51 252 0.0 1.0 0.00 0.00 0.00 96 1008.4
20260906042125 51 0.0 0.0 0.00 0.00 0.00 95 1008.3
20260906041036 51 0.0 0.0 0.00 0.00 0.00 94 1008.3
20260906040100 52 168 0.0 2.0 0.00 0.00 0.00 94 1008.4
20260906035124 52 193 1.0 2.0 0.00 0.00 0.00 93 1008.3
20260906034037 52 0.0 0.0 0.00 0.00 0.00 93 1008.3
20260906033101 52 0.0 0.0 0.00 0.00 0.00 93 1008.3
20260906032204 52 254 2.0 2.0 0.00 0.00 0.00 92 1008.1
20260906031036 52 264 1.0 1.0 0.00 0.00 0.00 93 1008.1
20260906030100 52 240 0.0 2.0 0.00 0.00 0.00 93 1008.1
20260906025124 52 252 0.0 1.0 0.00 0.00 0.00 94 1008.2
20260906024036 52 289 1.0 2.0 0.00 0.00 0.00 93 1008.0
20260906023100 52 275 1.0 2.0 0.00 0.00 0.00 94 1008.1
20260906022144 52 262 1.0 2.0 0.00 0.00 0.00 94 1007.9
20260906021056 52 240 0.0 2.0 0.00 0.00 0.00 94 1007.9
20260906020100 52 0.0 0.0 0.00 0.00 0.00 95 1008.0
20260906015124 52 0.0 0.0 0.00 0.00 0.00 95 1007.9
20260906014056 52 0.0 0.0 0.00 0.00 0.00 97 1007.8
20260906013100 51 0.0 0.0 0.00 0.00 0.00 97 1008.0
20260906012124 51 0.0 0.0 0.00 0.00 0.00 97 1007.8
20260906011055 51 0.0 0.0 0.00 0.00 0.00 98 1007.7
20260906010100 51 0.0 0.0 0.00 0.00 0.00 98 1007.6
20260906005143 50 0.0 0.0 0.00 0.00 0.00 98 1007.6
20260906004036 50 0.0 0.0 0.00 0.00 0.00 98 1007.5
20260906003100 50 0.0 0.0 0.00 0.00 0.00 98 1007.4
20260906002124 50 0.0 0.0 0.00 0.00 0.00 97 1007.5
20260906001035 51 0.0 0.0 0.00 0.00 0.00 97 1007.5
20260906000119 51 0.0 0.0 0.00 0.00 0.00 96 1007.4
20260905235124 51 0.0 0.0 0.00 0.00 0.00 96 1007.5
20260905234036 51 0.0 0.0 0.00 0.00 0.00 96 1007.5
20260905233059 51 176 0.0 2.0 0.00 0.00 0.00 96 1007.3
20260905232124 51 0.0 0.0 0.00 0.00 0.00 96 1007.3
20260905231036 51 0.0 0.0 0.00 0.00 0.00 96 1007.3
20260905230059 51 0.0 0.0 0.00 0.00 0.00 97 1007.4
20260905225123 51 0.0 0.0 0.00 0.00 0.00 98 1007.2
20260905224037 50 0.0 0.0 0.00 0.00 0.00 98 1007.3
20260905223100 49 0.0 0.0 0.00 0.00 0.00 98 1007.1
20260905222143 50 0.0 0.0 0.00 0.00 0.00 98 1007.1
20260905221036 50 0.0 0.0 0.00 0.00 0.00 98 1006.9
20260905220059 50 0.0 0.0 0.00 0.00 0.00 97 1006.9
20260905215123 49 0.0 0.0 0.00 0.00 0.00 97 1006.6
20260905214055 49 0.0 0.0 0.00 0.00 0.00 96 1006.6
20260905213100 50 0.0 0.0 0.00 0.00 0.00 96 1006.6
20260905212124 50 0.0 0.0 0.00 0.00 0.00 96 1006.6
20260905211036 51 0.0 0.0 0.00 0.00 0.00 95 1006.4
20260905210059 51 0.0 0.0 0.00 0.00 0.00 95 1006.3
20260905205123 51 0.0 0.0 0.00 0.00 0.00 95 1006.2
20260905204036 52 0.0 0.0 0.00 0.00 0.00 94 1006.1
20260905203100 52 0.0 0.0 0.00 0.00 0.00 93 1006.0
20260905202124 53 0.0 0.0 0.00 0.00 0.00 92 1006.0
20260905201056 54 0.0 0.0 0.00 0.00 0.00 91 1005.8
20260905200100 54 228 0.0 1.0 0.00 0.00 0.00 90 1006.0
20260905195124 54 0.0 0.0 0.00 0.00 0.00 91 1005.8
20260905194036 54 0.0 0.0 0.00 0.00 0.00 91 1005.7
20260905193100 54 264 0.0 1.0 0.00 0.00 0.00 91 1005.6
20260905192124 54 0.0 0.0 0.00 0.00 0.00 91 1005.4